FREGAT DEB

Last updated on Sun Jun 21 2026 00:02:11 GMT+0000 (Coordinated Universal Time)

1 49271U 11037PF 26170.86525566 .00006273 00000+0 10826-1 0 9999 2 49271 51.6355 353.8561 0900592 288.1563 62.3334 12.42115278225383
UTC large
Height (km)
Speed (km/s)
/
Latitude / Longitude
Inclination (degrees)
Orbital Period (minutes)
Azimuth
Elevation
Range (km)
Doppler Factor

Next 0 passes for location: London (51.5072 / 0.1276)

No passes found over London.
FREGAT DEB